Time,TemperatureF,DewpointF,PressureIn,WindDirection,WindDirectionDegrees,WindSpeedMPH,WindSpeedGustMPH,Humidity,HourlyPrecipIn,Conditions,Clouds,dailyrainin,SolarRadiationWatts/m^2,SoftwareType,DateUTC
2013-09-17 00:50:00,71.0,48.0,-100.00,South,173,8.0,14.0,44,0.00,,,-99.99,0.000000,,2013-09-17 06:50:00,
2013-09-17 01:23:00,71.0,48.0,-100.00,South,173,8.0,14.0,44,0.00,,,-99.99,0.000000,,2013-09-17 07:23:00,
2013-09-17 01:32:00,71.0,48.0,-100.00,South,173,8.0,14.0,44,0.00,,,-99.99,0.000000,,2013-09-17 07:32:00,
2013-09-17 01:42:00,71.0,48.0,-100.00,South,173,8.0,14.0,44,0.00,,,-99.99,0.000000,,2013-09-17 07:42:00,
2013-09-17 02:52:00,71.0,49.0,-100.00,South,186,9.0,14.0,45,0.00,,,-99.99,0.000000,,2013-09-17 08:52:00,
2013-09-17 03:22:00,71.0,48.0,-100.00,South,181,9.0,13.0,45,0.00,,,-99.99,0.000000,,2013-09-17 09:22:00,
2013-09-17 04:53:00,70.0,49.0,-100.00,South,174,9.0,13.0,48,0.00,,,-99.99,0.000000,,2013-09-17 10:53:00,
2013-09-17 05:50:00,68.0,49.0,-100.00,South,174,6.0,8.0,51,0.00,,,-99.99,0.000000,,2013-09-17 11:50:00,
2013-09-17 05:52:00,69.0,50.0,-100.00,SW,219,10.0,18.0,51,0.00,,,-99.99,0.000000,,2013-09-17 11:52:00,
2013-09-17 06:21:00,68.0,49.0,-100.00,South,174,6.0,8.0,51,0.00,,,-99.99,0.000000,,2013-09-17 12:21:00,
2013-09-17 06:32:00,68.0,49.0,-100.00,South,174,6.0,8.0,51,0.00,,,-99.99,0.000000,,2013-09-17 12:32:00,
2013-09-17 06:42:00,68.0,49.0,-100.00,South,174,6.0,8.0,51,0.00,,,-99.99,0.000000,,2013-09-17 12:42:00,
2013-09-17 08:11:00,69.0,48.0,-100.00,South,175,9.0,13.0,47,0.00,,,-99.99,16.000000,,2013-09-17 14:11:00,
2013-09-17 08:52:00,70.0,49.0,-100.00,South,173,13.0,18.0,46,0.00,,,-99.99,255.000000,,2013-09-17 14:52:00,
2013-09-17 09:53:00,73.0,51.0,-100.00,SSE,168,12.0,17.0,46,0.00,,,-99.99,415.000000,,2013-09-17 15:53:00,
2013-09-17 10:23:00,75.0,51.0,-100.00,South,170,11.0,21.0,43,0.00,,,-99.99,499.000000,,2013-09-17 16:23:00,
2013-09-17 10:53:00,75.0,50.0,-100.00,South,176,12.0,18.0,42,0.00,,,-99.99,129.000000,,2013-09-17 16:53:00,
2013-09-17 11:50:00,78.0,53.0,-100.00,South,174,7.0,10.0,41,0.00,,,-99.99,917.000000,,2013-09-17 17:50:00,
2013-09-17 11:53:00,77.0,52.0,-100.00,South,171,9.0,14.0,41,0.00,,,-99.99,747.000000,,2013-09-17 17:53:00,
2013-09-17 12:21:00,78.0,53.0,-100.00,South,174,7.0,10.0,41,0.00,,,-99.99,917.000000,,2013-09-17 18:21:00,
2013-09-17 12:32:00,78.0,53.0,-100.00,South,174,7.0,10.0,41,0.00,,,-99.99,917.000000,,2013-09-17 18:32:00,
2013-09-17 12:42:00,78.0,53.0,-100.00,South,174,7.0,10.0,41,0.00,,,-99.99,917.000000,,2013-09-17 18:42:00,
2013-09-17 14:22:00,75.0,49.0,-100.00,SSE,163,11.0,16.0,40,0.00,,,-99.99,224.000000,,2013-09-17 20:22:00,
2013-09-17 15:22:00,82.0,51.0,-100.00,SSE,166,5.0,12.0,34,0.00,,,-99.99,656.000000,,2013-09-17 21:22:00,
2013-09-17 16:50:00,82.0,40.0,-100.00,SW,235,11.0,23.0,22,0.00,,,-99.99,470.000000,,2013-09-17 22:50:00,
2013-09-17 17:21:00,82.0,40.0,-100.00,SW,235,11.0,23.0,22,0.00,,,-99.99,470.000000,,2013-09-17 23:21:00,
2013-09-17 17:34:00,82.0,40.0,-100.00,SW,235,11.0,23.0,22,0.00,,,-99.99,470.000000,,2013-09-17 23:34:00,
2013-09-17 17:42:00,82.0,40.0,-100.00,SW,235,11.0,23.0,22,0.00,,,-99.99,470.000000,,2013-09-17 23:42:00,
2013-09-17 19:52:00,74.0,39.0,-100.00,SSW,207,6.0,12.0,28,0.00,,,-99.99,5.000000,,2013-09-18 01:52:00,
2013-09-17 21:50:00,71.0,44.0,-100.00,South,179,6.0,9.0,39,0.00,,,-99.99,0.000000,,2013-09-18 03:50:00,
2013-09-17 21:54:00,72.0,43.0,-100.00,South,191,6.0,8.0,35,0.00,,,-99.99,0.000000,,2013-09-18 03:54:00,
2013-09-17 22:24:00,71.0,44.0,-100.00,South,179,6.0,9.0,39,0.00,,,-99.99,0.000000,,2013-09-18 04:24:00,
2013-09-17 22:33:00,71.0,44.0,-100.00,South,179,6.0,9.0,39,0.00,,,-99.99,0.000000,,2013-09-18 04:33:00,
2013-09-17 22:44:00,71.0,44.0,-100.00,South,179,6.0,9.0,39,0.00,,,-99.99,0.000000,,2013-09-18 04:44:00,
2013-09-17 23:53:00,74.0,39.0,-100.00,South,178,7.0,17.0,29,0.00,,,-99.99,0.000000,,2013-09-18 05:53:00,